Starlink 32871

operational
NORAD ID: 62924 Int'l Des: 2025-027 Owner: SPXS Country: US Constellation: starlink
LEOCIRCULAR

About Starlink 32871

Description loading...

Live Position

Loading 3D Globe...

Upcoming Passes

Altitude History

Altitude vs Time

uPlot chart will show altitude changes over time

Two-Line Element Set

1 62924U 25027T 25257.41678192 .00021107 00000-0 77295-3 0 9992
2 62924 43.0039 44.3607 0002000 274.7994 85.2629 15.27638153 34585
Epoch: Sep 14, 2025 • Age: 19 hours

Current Status

Altitude 481.9 km
Velocity 7.63 km/s
Sub-Earth Point 7.72°N, 19.42°W
Launch Date Feb 8, 2025
Age 0.5 years
Type internet

Technical Details

Classification Payload
Mass 730.00 kg
Dry Mass 700.00 kg
Total Mass 730.00 kg
Length 0.30 m
Diameter 4.10 m
Span 29.00 m
Shape Box + pan
Manufacturer SPXS
Bus Type Starlink V2M
Phase Status In Orbit
Owner/State SPXS/US

Large Constellations

Loading constellations...